Погода в Комсомольске

Россия / Кемеровская область (Кузбасс)     55°37′48″N   88°10′54″E
темп.,
°C
ветер,
м/с
пор.,
м/с
влажн.,
%
обл.,
%
осадки,
мм/ч
давл.,
гПа
погр.,
м
14 апреля, ср
ср1401:000з61398100 1.4 1028760
04:000з599098 0.7 1028692
07:000зюз51190100 0.8 1028771
10:00+1зюз61397100 0.8 1027830
13:00+2зюз71596100 1.2 1024910
16:00+1зюз101896100 2.9 1020965
19:00+1зюз91796100 5.8 10201006
22:00+2зюз81597100 0.7 1020873
15 апреля, чт
чт1501:00+2з61397100 0.9 1021822
04:00+2з4998100 0.6 1023712
07:00+1з2699100 1.0 1025511
10:00+2зюз2699100 0.1 1025490
13:00+2юз3998100 0.3 1025505
16:00+3юз41198100 0.0 1024521
19:00+2юз51297100 0.0 1022527
22:00+2юз51397100 0.0 1022597
16 апреля, пт
пт1601:00+2юз51396100 0.0 1020555
04:00+3юз61496100 0.0 1018463
07:00+4юз81690100 0.0 1017587
10:00+5юз71688100 0.0 1015973
13:00+8юз9178219 0.0 1012884
16:00+8юз10188392 0.0 1010944
19:00+8юз91785100 0.0 10091031
22:00+4сз61294100 0.9 1010621
17 апреля, сб
сб1701:000с3799100 3.4 1014411
04:00−1с3795100 2.7 1016528
07:00−3ссв5895100 3.9 1018527
10:00−4св4673100 0.5 1020720
13:00−2ссв5892100 3.9 1012803
16:00−2всв5764100 0.0 10181137
19:00−3в58705 0.0 1018954
22:00−4в5127980 0.0 1017595
18 апреля, вс
вс1801:00−4в71380100 0.1 1015668
04:00−4вюв61191100 0.1 1013512
07:00−3юв3587100 0.3 1011275
10:000зюз3667100 0.0 1009987
13:00+2зюз5758100 0.0 10081318
16:00+3зюз5853100 0.0 10091711
19:00−1сз3481100 2.4 1019712
22:00−1зюз3107799 0.1 1012398